sat.trackr.live / text

‹ back to catalog

ONEWEB-0570

NORAD 55149 · 2023-004K

PAYLOAD ACTIVE UNKNOWN

§ Identity

Operator
Country
UK
Launch date
2023-01-10
Launch site
AFETR
Launch vehicle
Mass (kg)
RCS (m²)

Purposes: comms

External: N2YO · Heavens-Above · Gunter

§ Orbital elements

Epoch: 2026-05-25T01:29:17.516256Z

Period
109.20 min
Inclination
87.9158°
Eccentricity
0.0002018
Mean motion
13.18687694 rev/d
Perigee alt
1,188.2 km
Apogee alt
1,191.3 km
Semi-major
7,567.9 km
B*
-1.1282e-4
RAAN
340.0728°
Arg perigee
100.4587°
Mean anomaly
259.6773°
Rev number
16,664

§ Raw data

ONEWEB-05701 55149U 23004K   26145.06200829 -.00000032  00000+0 -11282-3 0  99912 55149  87.9158 340.0728 0002018 100.4587 259.6773 13.18687694166649

JSON: /api/v1/satellites/55149 · /tle

For live sub-satellite position, see the globe view (requires WebGL).

§ Visibility from observer

Set your observer location to see the next 7 days of passes ≥ 10°. The values pass through the URL so the page stays shareable.

No JS? Fill the form by hand. The geolocation button needs JavaScript.